Find Starlink 5875

NORAD ID: 57221 Int'l Des: 2023-094 Owner: SPXS Country: US Constellation: starlink operational
LEOCIRCULAR

現在のビュー

3D地球を読み込み中...

About Starlink 5875

Starlink 5875 (NORAD 57221) is a starlink constellation satellite (v1.5) launched Jul 7, 2023 by SPXS of US. It operates in LEO, CIRCULAR orbit with a mass of 305.00 kg.

Starlink 5875について

説明を読み込み中...

次回通過

Passes for default location (London). Set your location on the main map for personalized predictions.

高度履歴

Loading altitude history...

軌道要素

1 57221U 23094D 26167.18902307 .01284019 80461-3 31449-2 0 9997
2 57221 42.9965 187.8615 0001413 270.3854 89.6861 15.95437631162256
Epoch: Jun 16, 2026 • Age: 9 hours

現在のステータス

高度 287.3 km
速度 7.74 km/s
衛星直下点 -16.78°S, 60.28°E
打ち上げ日 Jul 7, 2023
運用期間 2.9 years
タイプ internet

技術仕様

分類 Payload
質量 305.00 kg
乾燥質量 290.00 kg
総質量 305.00 kg
長さ 0.20 m
直径 2.80 m
スパン 9.00 m
形状 Box + pan
製造者 SPXS
バスタイプ Starlink
フェーズステータス In Orbit
所有者/国 SPXS/US

Most Searched